| time (UTC) | temp F | wind direction | speed MPH | gust MPH | rain 1hr in | rain 24hr in | rain mn in | humidity % | barometer mb |
| 20260905093713 | 56 | 47 | 2.0 | 2.0 | 0.00 | 0.00 | 0.00 | 99 | 1010.9 |
| 20260905093209 | 56 | 62 | 2.0 | 2.0 | 0.00 | 0.00 | 0.00 | 99 | 1011.2 |
| 20260905092704 | 56 | 67 | 2.0 | 2.0 | 0.00 | 0.00 | 0.00 | 99 | 1011.2 |
| 20260905092200 | 56 | 50 | 2.0 | 2.0 | 0.00 | 0.00 | 0.00 | 99 | 1011.2 |
| 20260905091659 | 56 | 24 | 0.0 | 2.0 | 0.00 | 0.00 | 0.00 | 99 | 1011.3 |
| 20260905091153 | 56 | 50 | 0.0 | 2.0 | 0.00 | 0.00 | 0.00 | 99 | 1011.2 |
| 20260905090648 | 56 | 55 | 2.0 | 2.0 | 0.00 | 0.00 | 0.00 | 99 | 1011.2 |
| 20260905090144 | 56 | 76 | 2.0 | 2.0 | 0.00 | 0.00 | 0.00 | 99 | 1011.2 |
| 20260905085642 | 56 | 40 | 2.0 | 2.0 | 0.00 | 0.00 | 0.00 | 99 | 1011.5 |
| 20260905085137 | 56 | 41 | 1.0 | 2.0 | 0.00 | 0.00 | 0.00 | 99 | 1011.2 |
| 20260905084636 | 56 | 32 | 0.0 | 2.0 | 0.00 | 0.00 | 0.00 | 99 | 1011.2 |
| 20260905084131 | 56 | 76 | 0.0 | 2.0 | 0.00 | 0.00 | 0.00 | 99 | 1011.3 |
| 20260905083626 | 56 | 37 | 2.0 | 2.0 | 0.00 | 0.00 | 0.00 | 99 | 1011.5 |
| 20260905083123 | 56 | 86 | 1.0 | 2.0 | 0.00 | 0.00 | 0.00 | 99 | 1011.5 |
| 20260905082618 | 56 | 72 | 0.0 | 1.0 | 0.00 | 0.00 | 0.00 | 99 | 1011.5 |
| 20260905082114 | 56 | 49 | 0.0 | 1.0 | 0.00 | 0.00 | 0.00 | 99 | 1011.4 |
| 20260905081613 | 56 | 45 | 0.0 | 2.0 | 0.00 | 0.00 | 0.00 | 99 | 1011.7 |
| 20260905081108 | 57 | 34 | 0.0 | 2.0 | 0.00 | 0.00 | 0.00 | 99 | 1011.4 |
| 20260905080603 | 57 | 46 | 2.0 | 2.0 | 0.00 | 0.00 | 0.00 | 99 | 1011.4 |
| 20260905080057 | 57 | 30 | 2.0 | 2.0 | 0.00 | 0.00 | 0.00 | 99 | 1011.4 |
| 20260905075550 | 57 | 41 | 1.0 | 2.0 | 0.00 | 0.00 | 0.00 | 99 | 1011.6 |
| 20260905075045 | 57 | 75 | 1.0 | 2.0 | 0.00 | 0.00 | 0.00 | 99 | 1011.7 |
| 20260905074544 | 57 | 71 | 0.0 | 1.0 | 0.00 | 0.00 | 0.00 | 99 | 1011.6 |
| 20260905074040 | 57 | 22 | 0.0 | 1.0 | 0.00 | 0.00 | 0.00 | 99 | 1011.6 |
| 20260905073535 | 57 | 31 | 1.0 | 2.0 | 0.00 | 0.00 | 0.00 | 99 | 1011.6 |
| 20260905073031 | 57 | 39 | 0.0 | 2.0 | 0.00 | 0.00 | 0.00 | 99 | 1011.6 |
| 20260905072530 | 58 | 89 | 1.0 | 2.0 | 0.00 | 0.00 | 0.00 | 99 | 1011.4 |
| 20260905072026 | 58 | 40 | 0.0 | 1.0 | 0.00 | 0.00 | 0.00 | 99 | 1011.7 |
| 20260905071523 | 58 | 23 | 1.0 | 2.0 | 0.00 | 0.00 | 0.00 | 99 | 1011.7 |
| 20260905071023 | 58 | 34 | 1.0 | 2.0 | 0.00 | 0.00 | 0.00 | 99 | 1011.7 |
| 20260905070518 | 58 | 86 | 0.0 | 2.0 | 0.00 | 0.00 | 0.00 | 99 | 1011.7 |
| 20260905070014 | 58 | 27 | 1.0 | 2.0 | 0.00 | 0.00 | 0.00 | 99 | 1011.9 |
| 20260905065511 | 58 | 45 | 2.0 | 2.0 | 0.00 | 0.00 | 0.00 | 99 | 1011.8 |
| 20260905065007 | 58 | 65 | 1.0 | 3.0 | 0.00 | 0.00 | 0.00 | 99 | 1011.9 |
| 20260905064502 | 58 | 25 | 1.0 | 1.0 | 0.00 | 0.00 | 0.00 | 99 | 1011.8 |
| 20260905063956 | 58 | 68 | 1.0 | 3.0 | 0.00 | 0.00 | 0.00 | 99 | 1011.9 |
| 20260905063450 | 58 | 51 | 0.0 | 1.0 | 0.00 | 0.00 | 0.00 | 99 | 1011.8 |
| 20260905062947 | 58 | 63 | 0.0 | 2.0 | 0.00 | 0.00 | 0.00 | 99 | 1012.0 |
| 20260905062441 | 58 | 28 | 2.0 | 2.0 | 0.00 | 0.00 | 0.00 | 99 | 1012.1 |
| 20260905061937 | 58 | 45 | 2.0 | 2.0 | 0.00 | 0.00 | 0.00 | 99 | 1012.0 |
| 20260905061436 | 58 | 49 | 0.0 | 2.0 | 0.00 | 0.00 | 0.00 | 99 | 1012.1 |
| 20260905060935 | 58 | 44 | 1.0 | 2.0 | 0.00 | 0.00 | 0.00 | 99 | 1012.1 |
| 20260905060432 | 58 | 50 | 0.0 | 1.0 | 0.00 | 0.00 | 0.00 | 99 | 1012.1 |
| 20260905055931 | 58 | 50 | 0.0 | 1.0 | 0.00 | 0.00 | 0.00 | 99 | 1012.1 |
| 20260905055426 | 58 | 44 | 0.0 | 1.0 | 0.00 | 0.00 | 0.00 | 99 | 1012.2 |
| 20260905054925 | 58 | 57 | 1.0 | 2.0 | 0.00 | 0.00 | 0.00 | 99 | 1012.2 |
| 20260905054422 | 58 | 104 | 2.0 | 2.0 | 0.00 | 0.00 | 0.00 | 99 | 1012.2 |
| 20260905053921 | 58 | 52 | 2.0 | 2.0 | 0.00 | 0.00 | 0.00 | 99 | 1012.1 |
| 20260905053416 | 58 | 44 | 0.0 | 1.0 | 0.00 | 0.00 | 0.00 | 99 | 1012.4 |
| 20260905052912 | 58 | 35 | 0.0 | 2.0 | 0.00 | 0.00 | 0.00 | 99 | 1012.4 |
| 20260905052411 | 59 | 87 | 0.0 | 2.0 | 0.00 | 0.00 | 0.00 | 99 | 1012.3 |
| 20260905051911 | 59 | 44 | 0.0 | 2.0 | 0.00 | 0.00 | 0.00 | 99 | 1012.5 |
| 20260905051407 | 59 | 43 | 0.0 | 2.0 | 0.00 | 0.00 | 0.00 | 99 | 1012.5 |
| 20260905050904 | 59 | 39 | 0.0 | 1.0 | 0.00 | 0.00 | 0.00 | 99 | 1012.5 |
| 20260905050400 | 59 | 50 | 1.0 | 2.0 | 0.00 | 0.00 | 0.00 | 99 | 1012.5 |
| 20260905045855 | 60 | 74 | 2.0 | 2.0 | 0.00 | 0.00 | 0.00 | 99 | 1012.6 |
| 20260905045350 | 60 | 35 | 1.0 | 1.0 | 0.00 | 0.00 | 0.00 | 99 | 1012.4 |
| 20260905044845 | 60 | 13 | 0.0 | 1.0 | 0.00 | 0.00 | 0.00 | 99 | 1012.6 |
| 20260905044340 | 60 | 314 | 0.0 | 1.0 | 0.00 | 0.00 | 0.00 | 99 | 1012.6 |
| 20260905043839 | 60 | 40 | 0.0 | 1.0 | 0.00 | 0.00 | 0.00 | 99 | 1012.7 |
| 20260905043333 | 60 | 323 | 0.0 | 1.0 | 0.00 | 0.00 | 0.00 | 99 | 1012.7 |
| 20260905042828 | 60 | 293 | 0.0 | 1.0 | 0.00 | 0.00 | 0.00 | 99 | 1012.8 |
| 20260905042323 | 60 | 32 | 0.0 | 0.0 | 0.00 | 0.00 | 0.00 | 99 | 1012.6 |
| 20260905041818 | 61 | 60 | 0.0 | 0.0 | 0.00 | 0.00 | 0.00 | 99 | 1012.7 |
| 20260905041314 | 61 | 40 | 1.0 | 1.0 | 0.00 | 0.00 | 0.00 | 99 | 1012.6 |
| 20260905040808 | 61 | 326 | 0.0 | 1.0 | 0.00 | 0.00 | 0.00 | 99 | 1012.6 |
| 20260905040307 | 61 | 352 | 0.0 | 1.0 | 0.00 | 0.00 | 0.00 | 99 | 1012.6 |
| 20260905035802 | 61 | 326 | 0.0 | 1.0 | 0.00 | 0.17 | 0.17 | 99 | 1012.6 |
| 20260905035258 | 61 | 37 | 0.0 | 0.0 | 0.00 | 0.17 | 0.17 | 99 | 1012.6 |
| 20260905034755 | 62 | 35 | 1.0 | 2.0 | 0.00 | 0.17 | 0.17 | 99 | 1012.5 |
| 20260905034255 | 62 | 1 | 1.0 | 1.0 | 0.00 | 0.17 | 0.17 | 99 | 1012.6 |
| 20260905033753 | 62 | 45 | 1.0 | 2.0 | 0.00 | 0.17 | 0.17 | 99 | 1012.6 |
| 20260905033249 | 62 | 31 | 0.0 | 1.0 | 0.00 | 0.17 | 0.17 | 99 | 1012.4 |
| 20260905032748 | 62 | 0 | 0.0 | 1.0 | 0.00 | 0.17 | 0.17 | 98 | 1012.6 |
| 20260905032244 | 63 | 75 | 2.0 | 2.0 | 0.00 | 0.17 | 0.17 | 98 | 1012.4 |
| 20260905031739 | 63 | 42 | 1.0 | 1.0 | 0.00 | 0.17 | 0.17 | 98 | 1012.5 |
| 20260905031235 | 63 | 32 | 0.0 | 1.0 | 0.00 | 0.17 | 0.17 | 98 | 1012.3 |
| 20260905030734 | 63 | 35 | 0.0 | 1.0 | 0.00 | 0.17 | 0.17 | 98 | 1012.3 |
| 20260905030230 | 63 | 38 | 0.0 | 1.0 | 0.00 | 0.17 | 0.17 | 98 | 1012.5 |
| 20260905025724 | 63 | 25 | 1.0 | 1.0 | 0.00 | 0.17 | 0.17 | 98 | 1012.4 |
| 20260905025220 | 63 | 35 | 1.0 | 2.0 | 0.00 | 0.17 | 0.17 | 97 | 1012.3 |
| 20260905024715 | 64 | 43 | 1.0 | 2.0 | 0.00 | 0.17 | 0.17 | 97 | 1012.4 |
| 20260905024211 | 64 | 54 | 2.0 | 2.0 | 0.00 | 0.17 | 0.17 | 97 | 1012.5 |
| 20260905023706 | 64 | 37 | 0.0 | 1.0 | 0.00 | 0.17 | 0.17 | 97 | 1012.5 |
| 20260905023206 | 64 | 0 | 0.0 | 1.0 | 0.00 | 0.17 | 0.17 | 97 | 1012.4 |
| 20260905022705 | 65 | 50 | 1.0 | 1.0 | 0.00 | 0.17 | 0.17 | 96 | 1012.4 |
| 20260905022201 | 65 | 336 | 0.0 | 0.0 | 0.00 | 0.17 | 0.17 | 95 | 1012.3 |
| 20260905021655 | 65 | 309 | 0.0 | 0.0 | 0.00 | 0.17 | 0.17 | 95 | 1012.3 |
| 20260905021150 | 65 | 309 | 0.0 | 0.0 | 0.00 | 0.17 | 0.17 | 96 | 1012.4 |
| 20260905020645 | 65 | 309 | 0.0 | 0.0 | 0.00 | 0.17 | 0.17 | 96 | 1012.3 |
| 20260905020141 | 65 | 309 | 0.0 | 0.0 | 0.00 | 0.17 | 0.17 | 96 | 1012.3 |
| 20260905015639 | 65 | 50 | 0.0 | 1.0 | 0.00 | 0.17 | 0.17 | 97 | 1012.7 |
| 20260905015133 | 65 | 37 | 0.0 | 0.0 | 0.00 | 0.17 | 0.17 | 97 | 1012.7 |
| 20260905014627 | 65 | 13 | 0.0 | 1.0 | 0.00 | 0.17 | 0.17 | 97 | 1012.6 |
| 20260905014122 | 65 | 33 | 1.0 | 2.0 | 0.00 | 0.17 | 0.17 | 97 | 1012.7 |
| 20260905013619 | 66 | 62 | 1.0 | 2.0 | 0.00 | 0.17 | 0.17 | 97 | 1012.9 |
| 20260905013114 | 66 | 50 | 0.0 | 1.0 | 0.00 | 0.17 | 0.17 | 97 | 1012.9 |
| 20260905012609 | 66 | 42 | 1.0 | 1.0 | 0.00 | 0.17 | 0.17 | 97 | 1012.7 |
| 20260905012105 | 66 | 0 | 0.0 | 1.0 | 0.00 | 0.17 | 0.17 | 96 | 1012.9 |
| 20260905011600 | 66 | 316 | 0.0 | 1.0 | 0.00 | 0.17 | 0.17 | 96 | 1012.8 |
| 20260905011057 | 66 | 0 | 0.0 | 1.0 | 0.00 | 0.17 | 0.17 | 96 | 1012.6 |
| 20260905010555 | 66 | 37 | 0.0 | 0.0 | 0.00 | 0.17 | 0.17 | 96 | 1012.6 |
| 20260905010052 | 66 | 333 | 0.0 | 1.0 | 0.00 | 0.17 | 0.17 | 96 | 1012.7 |
| 20260905005548 | 66 | 29 | 0.0 | 1.0 | 0.00 | 0.17 | 0.17 | 96 | 1012.5 |
| 20260905005043 | 66 | 25 | 1.0 | 1.0 | 0.00 | 0.17 | 0.17 | 97 | 1012.3 |
| 20260905004538 | 66 | 49 | 0.0 | 0.0 | 0.00 | 0.17 | 0.17 | 97 | 1012.4 |
| 20260905004034 | 66 | 50 | 0.0 | 1.0 | 0.00 | 0.17 | 0.17 | 96 | 1012.2 |
| 20260905003529 | 66 | 37 | 0.0 | 1.0 | 0.00 | 0.17 | 0.17 | 96 | 1012.3 |
| 20260905003025 | 67 | 8 | 2.0 | 2.0 | 0.00 | 0.17 | 0.17 | 97 | 1012.3 |
| 20260905002520 | 67 | 103 | 0.0 | 1.0 | 0.00 | 0.17 | 0.17 | 96 | 1012.3 |
| 20260905002019 | 67 | 79 | 2.0 | 2.0 | 0.00 | 0.17 | 0.17 | 96 | 1012.4 |
| 20260905001514 | 67 | 37 | 0.0 | 1.0 | 0.00 | 0.17 | 0.17 | 95 | 1012.2 |
| 20260905001008 | 67 | 326 | 0.0 | 2.0 | 0.00 | 0.17 | 0.17 | 96 | 1012.2 |
| 20260905000504 | 67 | 66 | 0.0 | 0.0 | 0.00 | 0.17 | 0.17 | 94 | 1012.1 |
| 20260905000000 | 67 | 71 | 0.0 | 1.0 | 0.00 | 0.17 | 0.17 | 94 | 1011.8 |
| 20260904235455 | 67 | 50 | 0.0 | 2.0 | 0.00 | 0.17 | 0.17 | 94 | 1011.9 |
| 20260904234949 | 67 | 55 | 0.0 | 0.0 | 0.00 | 0.17 | 0.17 | 94 | 1012.0 |
| 20260904234443 | 67 | 50 | 0.0 | 1.0 | 0.00 | 0.17 | 0.17 | 94 | 1011.9 |
| 20260904233940 | 67 | 40 | 0.0 | 1.0 | 0.00 | 0.17 | 0.17 | 94 | 1012.0 |
| 20260904233434 | 68 | 44 | 1.0 | 1.0 | 0.00 | 0.17 | 0.17 | 94 | 1012.1 |
| 20260904232931 | 68 | 299 | 0.0 | 2.0 | 0.00 | 0.17 | 0.17 | 93 | 1012.0 |
| 20260904232427 | 68 | 22 | 0.0 | 1.0 | 0.00 | 0.17 | 0.17 | 93 | 1011.8 |
| 20260904231924 | 68 | 35 | 0.0 | 1.0 | 0.00 | 0.17 | 0.17 | 92 | 1012.0 |
| 20260904231423 | 68 | 37 | 0.0 | 0.0 | 0.00 | 0.17 | 0.17 | 92 | 1012.1 |
| 20260904230918 | 68 | 37 | 0.0 | 0.0 | 0.00 | 0.17 | 0.17 | 91 | 1012.1 |
| 20260904230417 | 69 | 26 | 1.0 | 1.0 | 0.00 | 0.17 | 0.17 | 91 | 1011.9 |
| 20260904225912 | 69 | 30 | 0.0 | 1.0 | 0.00 | 0.17 | 0.17 | 91 | 1011.6 |
| 20260904225410 | 68 | 309 | 0.0 | 1.0 | 0.00 | 0.17 | 0.17 | 90 | 1011.4 |
| 20260904224905 | 69 | 328 | 1.0 | 2.0 | 0.00 | 0.17 | 0.17 | 91 | 1011.8 |
| 20260904224401 | 69 | 343 | 0.0 | 0.0 | 0.00 | 0.17 | 0.17 | 88 | 1011.6 |
| 20260904223900 | 70 | 319 | 1.0 | 2.0 | 0.00 | 0.17 | 0.17 | 89 | 1011.7 |
| 20260904223359 | 70 | 6 | 0.0 | 1.0 | 0.00 | 0.17 | 0.17 | 88 | 1012.0 |
| 20260904222857 | 70 | 353 | 1.0 | 1.0 | 0.00 | 0.17 | 0.17 | 87 | 1011.8 |
| 20260904222356 | 71 | 346 | 1.0 | 2.0 | 0.00 | 0.17 | 0.17 | 84 | 1011.7 |
| 20260904221856 | 72 | 30 | 1.0 | 2.0 | 0.00 | 0.17 | 0.17 | 84 | 1011.6 |
| 20260904221351 | 72 | 318 | 0.0 | 2.0 | 0.00 | 0.17 | 0.17 | 83 | 1011.7 |
| 20260904220846 | 73 | 347 | 2.0 | 2.0 | 0.00 | 0.17 | 0.17 | 78 | 1011.6 |
| 20260904220345 | 72 | 304 | 2.0 | 2.0 | 0.00 | 0.17 | 0.17 | 81 | 1011.5 |
| 20260904215841 | 73 | 326 | 0.0 | 2.0 | 0.00 | 0.17 | 0.17 | 75 | 1011.7 |
| 20260904215336 | 75 | 323 | 1.0 | 1.0 | 0.00 | 0.17 | 0.17 | 72 | 1011.6 |
| 20260904214832 | 76 | 0 | 1.0 | 2.0 | 0.00 | 0.17 | 0.17 | 67 | 1011.6 |
| 20260904214327 | 76 | 357 | 1.0 | 2.0 | 0.00 | 0.17 | 0.17 | 66 | 1011.5 |
| 20260904213825 | 76 | 27 | 1.0 | 3.0 | 0.00 | 0.17 | 0.17 | 68 | 1011.6 |
| 20260904213321 | 75 | 22 | 2.0 | 3.0 | 0.00 | 0.17 | 0.17 | 73 | 1011.6 |
| 20260904212817 | 75 | 355 | 2.0 | 3.0 | 0.00 | 0.17 | 0.17 | 71 | 1011.8 |
| 20260904212312 | 76 | 328 | 1.0 | 3.0 | 0.00 | 0.17 | 0.17 | 71 | 1011.5 |
| 20260904211807 | 76 | 356 | 1.0 | 2.0 | 0.00 | 0.17 | 0.17 | 65 | 1011.6 |
| 20260904211301 | 76 | 10 | 3.0 | 4.0 | 0.00 | 0.17 | 0.17 | 64 | 1011.5 |
| 20260904210756 | 76 | 44 | 0.0 | 3.0 | 0.00 | 0.17 | 0.17 | 65 | 1011.5 |
| 20260904210256 | 77 | 24 | 0.0 | 2.0 | 0.00 | 0.17 | 0.17 | 66 | 1011.7 |
| 20260904205752 | 77 | 6 | 3.0 | 3.0 | 0.00 | 0.17 | 0.17 | 64 | 1011.8 |
| 20260904205248 | 77 | 18 | 1.0 | 3.0 | 0.00 | 0.17 | 0.17 | 66 | 1011.6 |
| 20260904204744 | 77 | 86 | 0.0 | 3.0 | 0.00 | 0.17 | 0.17 | 66 | 1011.7 |
| 20260904204240 | 76 | 359 | 2.0 | 3.0 | 0.00 | 0.17 | 0.17 | 71 | 1011.7 |
| 20260904203736 | 75 | 331 | 2.0 | 2.0 | 0.00 | 0.17 | 0.17 | 71 | 1011.8 |
| 20260904203232 | 75 | 3 | 2.0 | 2.0 | 0.00 | 0.17 | 0.17 | 66 | 1012.0 |
| 20260904202728 | 75 | 6 | 3.0 | 4.0 | 0.00 | 0.17 | 0.17 | 66 | 1012.0 |
| 20260904202225 | 76 | 61 | 1.0 | 3.0 | 0.00 | 0.17 | 0.17 | 66 | 1011.8 |
| 20260904201720 | 76 | 354 | 4.0 | 4.0 | 0.00 | 0.17 | 0.17 | 65 | 1011.9 |
| 20260904201219 | 78 | 2 | 1.0 | 2.0 | 0.00 | 0.17 | 0.17 | 65 | 1012.0 |
| 20260904200714 | 79 | 4 | 1.0 | 1.0 | 0.00 | 0.17 | 0.17 | 62 | 1012.3 |
| 20260904200209 | 77 | 348 | 1.0 | 2.0 | 0.00 | 0.17 | 0.17 | 70 | 1012.4 |
| 20260904195708 | 75 | 6 | 2.0 | 4.0 | 0.00 | 0.17 | 0.17 | 70 | 1012.3 |
| 20260904195201 | 76 | 357 | 3.0 | 3.0 | 0.00 | 0.17 | 0.17 | 65 | 1012.3 |
| 20260904194701 | 78 | 86 | 2.0 | 3.0 | 0.00 | 0.17 | 0.17 | 63 | 1012.1 |
| 20260904194155 | 77 | 307 | 4.0 | 5.0 | 0.00 | 0.17 | 0.17 | 65 | 1012.5 |
| 20260904193651 | 77 | 345 | 3.0 | 3.0 | 0.00 | 0.17 | 0.17 | 64 | 1012.7 |
| 20260904193147 | 76 | 3 | 2.0 | 3.0 | 0.00 | 0.17 | 0.17 | 65 | 1012.5 |
| 20260904192647 | 75 | 299 | 1.0 | 3.0 | 0.00 | 0.17 | 0.17 | 70 | 1012.5 |
| 20260904192142 | 75 | 343 | 0.0 | 2.0 | 0.00 | 0.17 | 0.17 | 65 | 1012.4 |
| 20260904191639 | 76 | 4 | 3.0 | 5.0 | 0.00 | 0.17 | 0.17 | 63 | 1012.6 |
| 20260904191135 | 76 | 349 | 3.0 | 7.0 | 0.00 | 0.17 | 0.17 | 64 | 1012.6 |
| 20260904190630 | 76 | 356 | 3.0 | 4.0 | 0.00 | 0.17 | 0.17 | 68 | 1012.5 |
| 20260904190126 | 75 | 3 | 3.0 | 5.0 | 0.00 | 0.17 | 0.17 | 65 | 1012.7 |
| 20260904185624 | 77 | 356 | 3.0 | 3.0 | 0.00 | 0.17 | 0.17 | 62 | 1012.6 |
| 20260904185118 | 77 | 350 | 1.0 | 2.0 | 0.00 | 0.17 | 0.17 | 66 | 1012.7 |
| 20260904184616 | 77 | 321 | 4.0 | 4.0 | 0.00 | 0.17 | 0.17 | 65 | 1012.7 |
| 20260904184112 | 78 | 7 | 4.0 | 6.0 | 0.00 | 0.17 | 0.17 | 60 | 1012.7 |
| 20260904183608 | 79 | 266 | 7.0 | 9.0 | 0.00 | 0.17 | 0.17 | 59 | 1012.7 |
| 20260904183102 | 79 | 267 | 4.0 | 6.0 | 0.00 | 0.17 | 0.17 | 59 | 1012.8 |
| 20260904182558 | 78 | 284 | 3.0 | 4.0 | 0.00 | 0.17 | 0.17 | 63 | 1012.7 |
| 20260904182052 | 78 | 66 | 3.0 | 4.0 | 0.00 | 0.17 | 0.17 | 61 | 1012.8 |
| 20260904181548 | 79 | 260 | 5.0 | 5.0 | 0.00 | 0.17 | 0.17 | 60 | 1013.0 |
| 20260904181048 | 77 | 8 | 3.0 | 5.0 | 0.00 | 0.17 | 0.17 | 62 | 1013.0 |
| 20260904180543 | 78 | 34 | 2.0 | 6.0 | 0.00 | 0.17 | 0.17 | 61 | 1013.0 |
| 20260904180038 | 78 | 40 | 1.0 | 4.0 | 0.00 | 0.17 | 0.17 | 64 | 1012.9 |
| 20260904175532 | 78 | 309 | 3.0 | 9.0 | 0.00 | 0.17 | 0.17 | 61 | 1013.2 |
| 20260904175031 | 78 | 14 | 4.0 | 4.0 | 0.00 | 0.17 | 0.17 | 63 | 1013.0 |
| 20260904174526 | 77 | 10 | 5.0 | 5.0 | 0.00 | 0.17 | 0.17 | 64 | 1013.4 |
| 20260904174023 | 78 | 14 | 1.0 | 2.0 | 0.00 | 0.17 | 0.17 | 68 | 1013.2 |
| 20260904173522 | 78 | 356 | 2.0 | 9.0 | 0.00 | 0.17 | 0.17 | 64 | 1013.2 |
| 20260904173018 | 76 | 224 | 3.0 | 6.0 | 0.00 | 0.17 | 0.17 | 66 | 1013.3 |
| 20260904172514 | 74 | 35 | 2.0 | 2.0 | 0.00 | 0.17 | 0.17 | 72 | 1013.5 |
| 20260904172012 | 74 | 13 | 2.0 | 3.0 | 0.00 | 0.17 | 0.17 | 73 | 1013.4 |
| 20260904171508 | 76 | 9 | 3.0 | 4.0 | 0.00 | 0.17 | 0.17 | 72 | 1013.3 |
| 20260904171004 | 76 | 18 | 3.0 | 4.0 | 0.00 | 0.17 | 0.17 | 72 | 1013.4 |
| 20260904170459 | 75 | 142 | 0.0 | 3.0 | 0.00 | 0.17 | 0.17 | 73 | 1013.4 |
| 20260904165954 | 74 | 264 | 2.0 | 2.0 | 0.00 | 0.17 | 0.17 | 79 | 1013.5 |
| 20260904165453 | 74 | 12 | 2.0 | 2.0 | 0.00 | 0.17 | 0.17 | 76 | 1013.6 |
| 20260904164953 | 74 | 359 | 2.0 | 3.0 | 0.00 | 0.17 | 0.17 | 74 | 1013.5 |
| 20260904164448 | 75 | 359 | 3.0 | 4.0 | 0.00 | 0.17 | 0.17 | 71 | 1013.5 |
| 20260904163944 | 74 | 29 | 2.0 | 2.0 | 0.00 | 0.17 | 0.17 | 77 | 1013.2 |
| 20260904163438 | 74 | 87 | 3.0 | 4.0 | 0.00 | 0.17 | 0.17 | 77 | 1013.2 |
| 20260904162937 | 75 | 339 | 0.0 | 2.0 | 0.00 | 0.17 | 0.17 | 77 | 1013.1 |
| 20260904162433 | 75 | 254 | 3.0 | 5.0 | 0.00 | 0.17 | 0.17 | 73 | 1013.3 |
| 20260904161928 | 76 | 71 | 0.0 | 3.0 | 0.00 | 0.17 | 0.17 | 72 | 1013.5 |
| 20260904161423 | 74 | 315 | 1.0 | 4.0 | 0.00 | 0.17 | 0.17 | 75 | 1013.6 |
| 20260904160919 | 75 | 45 | 3.0 | 4.0 | 0.00 | 0.17 | 0.17 | 75 | 1013.6 |
| 20260904160414 | 75 | 0 | 3.0 | 3.0 | 0.00 | 0.17 | 0.17 | 76 | 1013.6 |
| 20260904155904 | 76 | 256 | 2.0 | 6.0 | 0.00 | 0.17 | 0.17 | 71 | 1013.6 |
| 20260904155403 | 76 | 329 | 1.0 | 3.0 | 0.00 | 0.17 | 0.17 | 72 | 1013.5 |
| 20260904154902 | 74 | 344 | 2.0 | 7.0 | 0.00 | 0.17 | 0.17 | 78 | 1013.5 |
| 20260904154357 | 73 | 271 | 5.0 | 8.0 | 0.00 | 0.17 | 0.17 | 77 | 1013.4 |
| 20260904153852 | 73 | 311 | 4.0 | 5.0 | 0.00 | 0.17 | 0.17 | 78 | 1013.8 |
| 20260904153348 | 74 | 345 | 1.0 | 4.0 | 0.00 | 0.17 | 0.17 | 76 | 1013.3 |
| 20260904152844 | 74 | 21 | 2.0 | 4.0 | 0.00 | 0.17 | 0.17 | 75 | 1013.5 |
| 20260904152338 | 75 | 6 | 2.0 | 4.0 | 0.00 | 0.17 | 0.17 | 77 | 1013.5 |
| 20260904151833 | 75 | 359 | 2.0 | 4.0 | 0.00 | 0.17 | 0.17 | 75 | 1013.7 |
| 20260904151332 | 74 | 126 | 2.0 | 6.0 | 0.00 | 0.17 | 0.17 | 77 | 1013.7 |
| 20260904150829 | 74 | 345 | 2.0 | 3.0 | 0.00 | 0.17 | 0.17 | 77 | 1013.7 |
| 20260904150323 | 74 | 102 | 2.0 | 3.0 | 0.00 | 0.17 | 0.17 | 78 | 1013.9 |
| 20260904145821 | 73 | 5 | 1.0 | 4.0 | 0.00 | 0.17 | 0.17 | 76 | 1013.6 |
| 20260904145318 | 74 | 349 | 2.0 | 3.0 | 0.00 | 0.17 | 0.17 | 78 | 1013.5 |
| 20260904144813 | 74 | 8 | 2.0 | 2.0 | 0.00 | 0.17 | 0.17 | 79 | 1013.9 |
| 20260904144308 | 75 | 15 | 1.0 | 2.0 | 0.00 | 0.17 | 0.17 | 78 | 1013.6 |
| 20260904143803 | 74 | 4 | 2.0 | 3.0 | 0.00 | 0.17 | 0.17 | 80 | 1013.4 |
| 20260904143300 | 73 | 357 | 3.0 | 4.0 | 0.00 | 0.17 | 0.17 | 79 | 1013.7 |
| 20260904142756 | 73 | 19 | 0.0 | 4.0 | 0.00 | 0.17 | 0.17 | 79 | 1013.6 |
| 20260904142252 | 73 | 0 | 2.0 | 3.0 | 0.00 | 0.17 | 0.17 | 82 | 1013.7 |
| 20260904141752 | 73 | 10 | 3.0 | 4.0 | 0.00 | 0.17 | 0.17 | 81 | 1013.4 |
| 20260904141247 | 72 | 59 | 0.0 | 4.0 | 0.00 | 0.17 | 0.17 | 83 | 1013.6 |
| 20260904140742 | 72 | 68 | 4.0 | 4.0 | 0.00 | 0.17 | 0.17 | 84 | 1013.5 |
| 20260904140238 | 72 | 328 | 4.0 | 4.0 | 0.00 | 0.17 | 0.17 | 85 | 1013.8 |
| 20260904135736 | 71 | 356 | 3.0 | 5.0 | 0.00 | 0.17 | 0.17 | 85 | 1013.7 |
| 20260904135232 | 71 | 334 | 2.0 | 6.0 | 0.00 | 0.17 | 0.17 | 85 | 1013.7 |
| 20260904134728 | 71 | 358 | 2.0 | 3.0 | 0.00 | 0.17 | 0.17 | 87 | 1013.8 |
| 20260904134227 | 70 | 306 | 5.0 | 5.0 | 0.00 | 0.17 | 0.17 | 85 | 1013.8 |
| 20260904133722 | 71 | 33 | 1.0 | 4.0 | 0.00 | 0.17 | 0.17 | 85 | 1013.5 |
| 20260904133219 | 70 | 325 | 0.0 | 4.0 | 0.00 | 0.17 | 0.17 | 87 | 1013.5 |
| 20260904132718 | 71 | 13 | 2.0 | 3.0 | 0.00 | 0.17 | 0.17 | 88 | 1013.2 |
| 20260904132214 | 71 | 5 | 4.0 | 4.0 | 0.00 | 0.17 | 0.17 | 87 | 1013.8 |
| 20260904131713 | 72 | 11 | 1.0 | 3.0 | 0.00 | 0.17 | 0.17 | 87 | 1013.4 |
| 20260904131209 | 70 | 2 | 2.0 | 2.0 | 0.00 | 0.17 | 0.17 | 91 | 1013.6 |
| 20260904130709 | 69 | 13 | 2.0 | 4.0 | 0.00 | 0.17 | 0.17 | 89 | 1013.3 |
| 20260904130208 | 70 | 29 | 1.0 | 2.0 | 0.00 | 0.17 | 0.17 | 89 | 1013.5 |
| 20260904125704 | 69 | 356 | 2.0 | 3.0 | 0.00 | 0.17 | 0.17 | 90 | 1013.5 |
| 20260904125159 | 69 | 9 | 0.0 | 3.0 | 0.00 | 0.17 | 0.17 | 92 | 1013.7 |
| 20260904124654 | 68 | 302 | 2.0 | 4.0 | 0.00 | 0.17 | 0.17 | 93 | 1013.6 |
| 20260904124150 | 69 | 346 | 2.0 | 3.0 | 0.00 | 0.17 | 0.17 | 93 | 1013.5 |
| 20260904123644 | 68 | 318 | 0.0 | 3.0 | 0.00 | 0.17 | 0.17 | 94 | 1013.9 |
| 20260904123140 | 68 | 350 | 0.0 | 2.0 | 0.00 | 0.17 | 0.17 | 96 | 1013.6 |
| 20260904122640 | 67 | 347 | 1.0 | 3.0 | 0.00 | 0.17 | 0.17 | 98 | 1013.4 |
| 20260904122135 | 67 | 13 | 0.0 | 2.0 | 0.00 | 0.17 | 0.17 | 99 | 1013.4 |
| 20260904121630 | 66 | 35 | 2.0 | 2.0 | 0.00 | 0.17 | 0.17 | 99 | 1013.4 |
| 20260904121126 | 66 | 66 | 2.0 | 2.0 | 0.00 | 0.17 | 0.17 | 99 | 1013.5 |
| 20260904120623 | 67 | 124 | 0.0 | 1.0 | 0.00 | 0.17 | 0.17 | 99 | 1013.6 |
| 20260904120119 | 65 | 31 | 2.0 | 2.0 | 0.00 | 0.17 | 0.17 | 99 | 1013.4 |
| 20260904115618 | 65 | 351 | 1.0 | 2.0 | 0.00 | 0.17 | 0.17 | 99 | 1013.6 |
| 20260904115113 | 65 | 50 | 0.0 | 2.0 | 0.00 | 0.17 | 0.17 | 99 | 1013.4 |
| 20260904114608 | 66 | 22 | 0.0 | 1.0 | 0.00 | 0.17 | 0.17 | 99 | 1013.2 |
| 20260904114103 | 66 | 89 | 0.0 | 0.0 | 0.00 | 0.17 | 0.17 | 99 | 1013.6 |
| 20260904113603 | 65 | 39 | 1.0 | 2.0 | 0.00 | 0.17 | 0.17 | 99 | 1013.2 |
| 20260904113102 | 65 | 80 | 2.0 | 2.0 | 0.00 | 0.17 | 0.17 | 99 | 1013.4 |
| 20260904112557 | 65 | 39 | 1.0 | 2.0 | 0.00 | 0.17 | 0.17 | 99 | 1013.4 |
| 20260904112053 | 65 | 48 | 2.0 | 3.0 | 0.00 | 0.17 | 0.17 | 99 | 1013.3 |
| 20260904111549 | 65 | 43 | 0.0 | 2.0 | 0.00 | 0.17 | 0.17 | 99 | 1013.3 |
| 20260904111044 | 65 | 358 | 1.0 | 2.0 | 0.00 | 0.17 | 0.17 | 99 | 1013.3 |
| 20260904110543 | 65 | 20 | 2.0 | 2.0 | 0.00 | 0.17 | 0.17 | 99 | 1013.2 |
| 20260904110034 | 65 | 14 | 1.0 | 2.0 | 0.00 | 0.17 | 0.17 | 99 | 1013.1 |
| 20260904105527 | 65 | 28 | 2.0 | 2.0 | 0.00 | 0.17 | 0.17 | 99 | 1012.9 |
| 20260904105023 | 65 | 11 | 2.0 | 2.0 | 0.00 | 0.17 | 0.17 | 99 | 1013.0 |
| 20260904104518 | 65 | 15 | 2.0 | 3.0 | 0.00 | 0.17 | 0.17 | 99 | 1013.2 |
| 20260904104014 | 65 | 45 | 2.0 | 2.0 | 0.00 | 0.17 | 0.17 | 99 | 1013.2 |
| 20260904103509 | 66 | 11 | 2.0 | 2.0 | 0.00 | 0.17 | 0.17 | 99 | 1013.2 |
| 20260904103005 | 66 | 214 | 0.0 | 1.0 | 0.00 | 0.17 | 0.17 | 99 | 1012.9 |
| 20260904102501 | 66 | 33 | 0.0 | 2.0 | 0.00 | 0.17 | 0.17 | 99 | 1012.8 |
| 20260904101955 | 66 | 48 | 1.0 | 2.0 | 0.00 | 0.17 | 0.17 | 99 | 1012.8 |
| 20260904101453 | 66 | 322 | 0.0 | 0.0 | 0.00 | 0.17 | 0.17 | 99 | 1012.9 |
| 20260904100948 | 66 | 50 | 0.0 | 1.0 | 0.00 | 0.17 | 0.17 | 99 | 1012.7 |
| 20260904100444 | 66 | 11 | 1.0 | 2.0 | 0.00 | 0.17 | 0.17 | 99 | 1012.9 |
| 20260904095943 | 66 | 43 | 2.0 | 2.0 | 0.00 | 0.17 | 0.17 | 99 | 1012.8 |
| 20260904095439 | 66 | 55 | 0.0 | 1.0 | 0.00 | 0.17 | 0.17 | 99 | 1012.7 |
| 20260904094938 | 66 | 66 | 1.0 | 2.0 | 0.00 | 0.17 | 0.17 | 99 | 1012.8 |
| 20260904094434 | 66 | 19 | 1.0 | 1.0 | 0.00 | 0.17 | 0.17 | 99 | 1012.7 |
| 20260904093924 | 66 | 23 | 1.0 | 2.0 | 0.00 | 0.17 | 0.17 | 99 | 1012.8 |